Total_Precipitation_Accumulation
0.13 0.15 0.19 0.22 0.22 0.22 0.25 0.31 0.34 0.42 0.50 0.58 0.73 0.95 1.22 1.33 1.42 1.38 1.20 1.15 1.27 1.51 1.69 1.63 1.64 1.63 1.47 1.40 1.48 1.63 1.55 1.25 0.97 0.91 0.74 0.56 0.44 0.44 0.42 0.40 0.38 0.36 0.38
0.07 0.07 0.10 0.13 0.15 0.15 0.17 0.22 0.30 0.39 0.48 0.57 0.75 0.91 1.06 1.07 1.24 1.40 1.37 1.28 1.28 1.41 1.54 1.77 1.81 1.71 1.68 1.78 1.82 2.09 2.17 1.74 1.32 1.22 1.25 0.96 0.74 0.50 0.38 0.38 0.36 0.36 0.47
0.06 0.06 0.06 0.08 0.09 0.10 0.12 0.15 0.22 0.32 0.45 0.61 0.85 1.07 1.26 1.34 1.40 1.33 1.42 1.42 1.35 1.37 1.44 1.59 1.73 1.71 1.75 1.80 1.91 2.21 2.59 2.32 1.84 1.56 1.63 1.29 1.07 0.89 0.49 0.33 0.35 0.38 0.46
0.09 0.06 0.06 0.07 0.07 0.08 0.09 0.12 0.20 0.35 0.56 0.78 1.04 1.30 1.50 1.54 1.43 1.47 1.50 1.38 1.30 1.26 1.32 1.45 1.58 1.67 1.67 1.77 1.84 1.94 2.36 2.62 2.32 2.04 1.67 1.31 1.13 1.13 0.90 0.55 0.44 0.49 0.48
0.13 0.12 0.11 0.12 0.13 0.14 0.16 0.23 0.43 0.68 0.93 1.14 1.41 1.70 1.70 1.59 1.50 1.50 1.46 1.40 1.40 1.38 1.37 1.50 1.55 1.55 1.59 1.68 1.95 2.16 2.40 2.54 2.46 2.35 2.17 1.93 1.58 1.14 1.11 1.04 0.78 0.65 0.57
0.22 0.27 0.31 0.37 0.41 0.44 0.58 0.79 1.05 1.24 1.33 1.46 1.61 1.73 1.71 1.72 1.66 1.48 1.38 1.37 1.41 1.47 1.52 1.57 1.55 1.51 1.53 1.62 1.80 2.03 2.24 2.51 2.64 2.50 2.29 2.13 1.91 1.59 1.41 1.16 1.06 0.97 0.78
0.33 0.45 0.61 0.74 0.84 0.96 1.08 1.22 1.42 1.56 1.50 1.47 1.52 1.56 1.57 1.57 1.56 1.50 1.40 1.34 1.35 1.37 1.40 1.51 1.61 1.67 1.69 1.77 1.90 2.00 1.93 2.13 2.46 2.41 2.27 2.14 1.87 1.77 1.75 1.55 1.27 1.12 0.82
0.52 0.63 0.72 0.83 1.00 1.14 1.19 1.19 1.30 1.40 1.36 1.33 1.31 1.28 1.34 1.37 1.34 1.26 1.25 1.28 1.34 1.32 1.26 1.30 1.40 1.54 1.68 1.70 1.73 1.72 1.66 1.78 1.99 2.06 2.24 2.32 2.04 1.84 1.66 1.52 1.49 1.24 1.02
0.79 0.94 1.04 1.17 1.21 1.25 1.30 1.22 1.21 1.25 1.25 1.17 1.09 1.09 1.15 1.20 1.23 1.18 1.19 1.17 1.16 1.08 1.01 1.01 1.04 1.11 1.18 1.24 1.38 1.46 1.54 1.56 1.67 1.80 1.94 2.09 2.19 2.08 1.80 1.66 1.56 1.44 1.23
1.03 1.32 1.57 1.74 1.57 1.30 1.18 1.13 1.06 1.06 1.14 1.11 1.04 1.01 1.10 1.11 1.10 1.13 1.10 1.10 1.09 1.00 0.93 0.89 0.84 0.79 0.76 0.80 0.98 1.16 1.27 1.36 1.49 1.65 1.76 1.79 1.87 2.06 2.01 1.79 1.70 1.55 1.34
1.19 1.34 1.53 1.70 1.60 1.28 1.05 1.05 1.06 1.01 0.99 0.99 1.01 1.00 0.99 0.90 0.89 0.94 0.95 0.94 0.95 0.98 0.96 0.88 0.81 0.88 0.86 0.81 0.86 0.92 0.97 1.05 1.17 1.31 1.40 1.52 1.79 2.10 2.12 2.06 1.91 1.72 1.52
1.10 1.09 1.13 1.20 1.21 1.06 0.87 0.83 0.96 1.01 0.95 0.92 0.95 0.94 0.85 0.81 0.77 0.76 0.73 0.66 0.64 0.67 0.75 0.83 0.78 0.77 0.79 0.79 0.83 0.85 0.89 0.91 0.98 1.06 1.16 1.28 1.59 1.95 2.17 2.25 2.14 1.95 1.76
1.07 1.03 0.95 0.88 0.91 0.88 0.80 0.76 0.89 1.03 1.05 1.00 0.86 0.78 0.74 0.71 0.69 0.61 0.57 0.55 0.50 0.50 0.54 0.62 0.63 0.72 0.78 0.80 0.81 0.81 0.84 0.87 0.95 1.08 1.11 1.13 1.30 1.51 1.75 1.94 2.04 2.01 1.98
0.77 0.71 0.66 0.61 0.60 0.63 0.67 0.73 0.83 0.90 1.02 1.11 1.01 0.86 0.77 0.70 0.64 0.57 0.54 0.51 0.49 0.51 0.57 0.69 0.74 0.69 0.66 0.71 0.80 0.82 0.76 0.76 0.81 0.88 0.95 1.01 1.03 1.17 1.35 1.49 1.67 1.86 2.05
0.38 0.37 0.36 0.34 0.33 0.33 0.34 0.43 0.55 0.70 0.89 1.09 1.07 0.92 0.86 0.78 0.65 0.60 0.60 0.58 0.61 0.57 0.58 0.69 0.80 0.87 0.82 0.78 0.85 0.80 0.78 0.78 0.77 0.81 0.80 0.85 0.87 0.90 1.05 1.11 1.33 1.64 1.88
0.25 0.24 0.22 0.20 0.16 0.14 0.16 0.17 0.25 0.42 0.59 0.75 0.81 0.77 0.69 0.61 0.58 0.57 0.55 0.52 0.51 0.47 0.47 0.50 0.58 0.67 0.72 0.91 0.86 0.69 0.66 0.69 0.75 0.79 0.79 0.79 0.72 0.71 0.75 0.85 0.98 1.26 1.44
0.19 0.18 0.19 0.18 0.17 0.16 0.14 0.14 0.17 0.24 0.35 0.47 0.56 0.55 0.49 0.43 0.40 0.45 0.45 0.43 0.39 0.40 0.38 0.37 0.37 0.44 0.59 0.66 0.51 0.49 0.54 0.66 0.75 0.81 0.83 0.81 0.75 0.77 0.76 0.74 0.74 0.81 0.99
0.18 0.16 0.16 0.15 0.13 0.12 0.11 0.11 0.14 0.17 0.18 0.22 0.26 0.27 0.28 0.27 0.29 0.31 0.32 0.33 0.32 0.30 0.29 0.36 0.44 0.46 0.47 0.52 0.42 0.41 0.52 0.70 0.81 0.79 0.75 0.81 0.82 0.85 0.88 0.78 0.80 0.75 0.76
0.09 0.08 0.07 0.06 0.05 0.04 0.04 0.04 0.05 0.05 0.05 0.06 0.08 0.10 0.12 0.14 0.17 0.18 0.21 0.30 0.33 0.34 0.37 0.48 0.56 0.49 0.41 0.44 0.45 0.50 0.66 0.78 0.85 0.81 0.80 0.87 0.88 1.00 1.01 0.89 0.93 0.88 0.84
0.02 0.02 0.01 0.01 0.01 0.00 0.00 0.00 0.00 0.00 0.00 0.00 0.00 0.01 0.01 0.02 0.05 0.08 0.11 0.17 0.24 0.31 0.38 0.40 0.38 0.38 0.43 0.49 0.46 0.57 0.77 0.89 0.99 0.95 0.93 1.10 1.04 0.98 0.91 0.87 1.00 0.99 0.82
0.00 0.00 0.00 0.00 0.00 0.00 0.00 0.00 0.00 0.00 0.00 0.00 0.00 0.00 0.00 0.00 0.01 0.02 0.03 0.06 0.11 0.15 0.17 0.19 0.22 0.29 0.45 0.51 0.52 0.70 0.79 0.85 1.00 1.03 0.98 0.91 1.02 0.93 0.84 0.84 0.89 1.02 0.88
0.00 0.00 0.00 0.00 0.00 0.00 0.00 0.00 0.00 0.00 0.00 0.00 0.00 0.00 0.00 0.00 0.01 0.01 0.02 0.02 0.04 0.06 0.10 0.12 0.16 0.22 0.30 0.37 0.43 0.56 0.68 0.75 0.92 0.99 0.90 0.80 1.01 0.94 0.82 0.76 0.77 0.89 0.94
0.00 0.00 0.00 0.00 0.00 0.00 0.00 0.00 0.00 0.00 0.00 0.00 0.00 0.00 0.00 0.01 0.01 0.01 0.01 0.02 0.03 0.06 0.07 0.11 0.17 0.23 0.27 0.28 0.34 0.42 0.50 0.62 0.80 0.86 0.87 0.88 0.90 0.80 0.74 0.82 0.83 0.82 0.86
0.00 0.00 0.00 0.00 0.00 0.00 0.00 0.00 0.00 0.00 0.00 0.00 0.00 0.00 0.01 0.01 0.01 0.01 0.02 0.02 0.02 0.05 0.08 0.15 0.21 0.24 0.27 0.28 0.34 0.42 0.46 0.55 0.64 0.66 0.70 0.74 0.70 0.68 0.70 0.74 0.82 0.83 0.86
0.00 0.00 0.00 0.00 0.00 0.00 0.00 0.00 0.00 0.00 0.00 0.00 0.00 0.00 0.01 0.01 0.01 0.01 0.01 0.02 0.02 0.04 0.10 0.14 0.17 0.18 0.20 0.23 0.30 0.41 0.49 0.60 0.70 0.71 0.65 0.68 0.67 0.66 0.64 0.67 0.68 0.70 0.68
0.00 0.00 0.00 0.00 0.00 0.00 0.00 0.00 0.00 0.00 0.00 0.00 0.00 0.00 0.01 0.01 0.01 0.02 0.02 0.01 0.01 0.02 0.04 0.05 0.08 0.14 0.16 0.13 0.14 0.24 0.38 0.54 0.74 0.95 0.98 0.98 0.92 0.82 0.71 0.61 0.53 0.49 0.50